AALTO-1 (42775 NORAD) Tracking and Keplerian Element Data

This shows tracking and keplerian element data for the satellite.

Feedback or suggestion? Click here.




ElementValue
Catalog42775
NameAALTO-1
Epoch Orbit10112
Epoch Day109.93793229
Epoch Year2019
RAAN168.0934
Inclination97.3559
Eccentricity0.0015678
Argument of Perigee72.6347
Mean Anonmoly287.6603
Mean Motion15.21236192
Decay Rate8.07E-06
L11 42775U 17036L 19109.93793229 .00000807 00000-0 39092-4 0 9998
L22 42775 97.3559 168.0934 0015678 72.6347 287.6603 15.21236192101121

Live tracking and technical data element details for AALTO-1 (NORAD 42775). AALTO-1 can be tracked NOW for your location showing map with azimuth and elevation plus other details from your city location.

Track the satellite on the map from your city or location and see movement details for azimuth, elevation, latitude, longitude, range, height, and movement on the map or in text.







IsCatalogInMostPopularTable: catalog: 42775, numindb: 220
Update: records affected: 1



GetName: 42775 AALTO-1

Hit Count: updated at: Sat, 20 Apr 2019 20:11:02 GMT